This is the latest recevied weather packets stored in our database for station/object DM4XI-13. If no packets are shown the sender has not sent any weather packets the latest 10 day(s).
| Time | Temp. | Humidity | Pressure | Rain* | Wind** | Luminosity | Snow |
|---|---|---|---|---|---|---|---|
| 1778255398 | 18.89° C | 46% | 1014.3 hPa | 0 mm | 0.45 m/s, 167° | 225 W/m² | - |
| 1778255337 | 18.89° C | 46% | 1014.1 hPa | 0 mm | 1.34 m/s, 4° | 219 W/m² | - |
| 1778255276 | 18.89° C | 46% | 1014.3 hPa | 0 mm | 0.89 m/s, 30° | 293 W/m² | - |
| 1778255215 | 19.44° C | 46% | 1014.2 hPa | 0 mm | 1.79 m/s, 318° | 291 W/m² | - |
| 1778255153 | 19.44° C | 44% | 1014.3 hPa | 0 mm | 1.34 m/s, 317° | 299 W/m² | - |
| 1778255092 | 19.44° C | 45% | 1014.1 hPa | 0 mm | 1.34 m/s, 286° | 272 W/m² | - |
| 1778255032 | 18.89° C | 46% | 1014.1 hPa | 0 mm | 0.45 m/s, 296° | 280 W/m² | - |
| 1778254971 | 18.89° C | 46% | 1014.2 hPa | 0 mm | 0 m/s | 300 W/m² | - |
| 1778254910 | 18.89° C | 45% | 1014.1 hPa | 0 mm | 0.89 m/s, 18° | 307 W/m² | - |
| 1778254848 | 18.33° C | 47% | 1014 hPa | 0 mm | 0.45 m/s, 236° | 321 W/m² | - |
| 1778254787 | 17.78° C | 48% | 1014.1 hPa | 0 mm | 0.45 m/s, 200° | 295 W/m² | - |
| 1778254727 | 17.78° C | 48% | 1014.2 hPa | 0 mm | 0 m/s | 327 W/m² | - |
| 1778254665 | 17.78° C | 49% | 1014.2 hPa | 0 mm | 0 m/s | 326 W/m² | - |
| 1778254604 | 17.78° C | 48% | 1014.2 hPa | 0 mm | 0.45 m/s, 183° | 324 W/m² | - |
| 1778254543 | 17.78° C | 50% | 1014.1 hPa | 0 mm | 0 m/s | 322 W/m² | - |
| 1778254483 | 17.78° C | 48% | 1014.3 hPa | 0 mm | 0.45 m/s, 156° | 163 W/m² | - |
| 1778254422 | 17.78° C | 49% | 1014.3 hPa | 0 mm | 0.45 m/s, 193° | 151 W/m² | - |
| 1778254361 | 17.78° C | 49% | 1014.3 hPa | 0 mm | 0 m/s | 148 W/m² | - |
| 1778254300 | 17.78° C | 48% | 1014.1 hPa | 0 mm | 0.45 m/s, 324° | 143 W/m² | - |
| 1778254239 | 17.78° C | 48% | 1014 hPa | 0 mm | 0.45 m/s, 281° | 133 W/m² | - |
| 1778254177 | 17.78° C | 47% | 1014.1 hPa | 0 mm | 0.89 m/s, 267° | 129 W/m² | - |
| 1778254117 | 18.33° C | 46% | 1014.2 hPa | 0 mm | 0.45 m/s, 53° | 132 W/m² | - |
| 1778254056 | 18.33° C | 46% | 1014.2 hPa | 0 mm | 0.89 m/s, 337° | 161 W/m² | - |
| 1778253995 | 18.33° C | 47% | 1014.2 hPa | 0 mm | 0.89 m/s, 274° | 251 W/m² | - |
| 1778253933 | 18.33° C | 48% | 1014.2 hPa | 0 mm | 0.89 m/s, 21° | 194 W/m² | - |
* Rain latest hour (hover to see other rain measurements)
** Current wind speed in m/s (hover to see current wind gust speed)